Погода в Щучинске

Погода в Щучинске : погода сейчас, прогноз погоды и архив. Всё, что Вы хотите узнать о погоде в Щучинске!

Поиск расширенной информации на нашем сайте:

Другие новости

Новости СМИ2

Главная страница сайта

Новости сайта

02.10.2013

Напоминаем, что на нашем новом сайте вы можете получить высокодетализированные прогнозы погоды по пунктам России, СНГ и мира (включающие важные для авиации метеовеличины, такие как направление и скорость ветра, видимость, явления погоды, количество и форма облачности, нижняя и верхняя граница облачности), а также ознакомиться с разнообразными материалами по авиационной метеорологии и подборкой полезных ссылок на эту тему.

Сайт Метеоцентр.Азия посвящён разработке технологий оптимизации авиаметеорологического обслуживания, включая проектирование и перспективное создание нескольких автоматизированных авиаметеорологических систем:
- система выпуска высокодетальных прогностических карт явлений погоды для нижнего воздушного пространства по России и ближнему зарубежью;
- система верификации прогнозов TAF (выпускаемых синоптиками официальных АМСГ РФ и ближнего зарубежья) и AUTOTAF (выпускаемых сайтом Метеоцентр.Азия) - выявление ошибок, онлайн-сопоставление с фактической погодой METAR, автоматическое внесение коррективов в прогнозы при резком отклонении фактической погоды от прогноза, подсчёт оправдываемости прогнозов по элементам и в целом;
- система обработки, анализа и отображения авиаметеорологической информации для применения провайдерами метеорологической информации.


Погода в Щучинске - сегодня

Время (UTC), дата Ветер
(°,м/с) 
Видим.   Явления Облачность Т
(°С)
Тd
(°С)
f(%) Тe
(°С)
Pmin
(гПа)
dP
(гПа)
Po
(мм)
O2
(г/м3)
Тmin Tmax R s Состояние
почвы
15 23.03.17 100 (В) н/о    3/0 верхняя 
[Ci sp]
-2.2 -7.5 67 -6  1030.2  -0.7  735  299    +2.5       
18 23.03.17 090 (В) н/о    ясно 
-4.7 -9 72 -6  1028.5  -2  734  302    +2.5       
21 23.03.17 090 (В) н/о    ясно 
-5 -9.4 71 -7  1025.8  -2.7  732  301           
00 24.03.17 090 (В) н/о    ясно 
-5 -10.6 65 -6  1022.9  -2.7  730  301           
03 24.03.17 тихо ()   20000 м    8/0 верхняя 
[Ci sp]
-3.9 -10.1 62 -4  1020.8  -1.8  728  299        56  неравномерный
мокрый или
старый снег
100% 
06 24.03.17 150 (ЮВ) 20000 м    8/0 верхняя 
[Cs]
-2.9 -8.2 67 -5  1017.9  -2.6  727  297  -5.8         
09 24.03.17 150 (ЮВ) 20000 м    10/0 средняя, верхняя 
[Ac lent|Cs]
-0.1 -5.5 67 +1  1015.3  -2  725  293           
12 24.03.17 140 (ЮВ) 20000 м    10/0 средняя, верхняя 
[Ac lent|Cs]
-0.2 -3.1 81 -2  1013.8  -1.4  724  292           
15 24.03.17 тихо ()   н/о    10/10 200 м 
[St]
-3.4 -4.2 94 -3  1014.4  724  296    +1.4       
18 24.03.17 230 (ЮЗ) н/о    10/10 300 м 
[St]
-3 -3.8 94 -5  1014.5  0.2  724  295    +1.4       
21 24.03.17 250 (З) н/о    10/10 300 м 
[St]
-3.3 -4.4 92 -6  1015  0.4  724  296           
00 25.03.17 250 (З) н/о    10/10 300 м 
[St]
-4.7 -6.2 89 -8  1017.1  1.7  726  298           
06 25.03.17 260 (З) 4000 м  снежные зёрна  10/10 200 м 
[St]
-1.5 -2.9 90 -4  1020.6  1.7  729  295  -6.2         
09 25.03.17 260 (З) 20000 м  {снег}  8/8 300 м кучево-дожд. 
[Cb cap]
+1 -3.3 73 -2  1021.4  1.2  730  293           
12 25.03.17 280 (З) 20000 м  {снег}  3/3 600 м кучево-дожд. 
[Cb cap]
+0.1 -5.1 68 -2  1022.7  1.1  730  295           
18 25.03.17 090 (В) н/о    ясно 
-7.1 -8.7 88 -7  1024.9  0.1  731  303    +1.2  0.0     
21 25.03.17 100 (В) н/о  туман  ?/?  
-7.5 -8.2 95 -7  1025.4  0.4  731  304           
00 26.03.17 110 (В) н/о  туман  ?/?  
-7.2 -7.7 96 -10  1024.2  -1.1  730  303           
03 26.03.17 120 (ЮВ) 0500 м  туман  ?/?  
-7.1 -7.8 95 -9  1023  -1.1  730  303        55  мокрый или
старый снег
50-90% 
06 26.03.17 130 (ЮВ) 1000 м  в посл. час туман{снег}  10/10 200 м 
[St]
-5.2 -5.6 97 -5  1021.4  -1.2  729  300  -8.3         
09 26.03.17 100 (В) 4000 м  дымка  10/10 300 м 
[St]
-0.8 -1.2 97 1016.3  -4  726  293           
12 26.03.17 140 (ЮВ) 4000 м  дымка  10/10 600 м 
[St]
-1.3 -2.7 90 -1  1014.9  -1.4  725  294           
15 26.03.17 270 (З) н/о  дымка  10/10 200 м 
[St]
-2.3 -3.6 91 -3  1014.8  -0.3  724  295    +0.1       
21 26.03.17 190 (Ю) н/о  дымка  10/10 300 м 
[St]
-3.2 -3.9 95 -4  1015.2  0.2  725  296           
00 27.03.17 190 (Ю) н/о  дымка  10/10 200 м 
[St]
-1.7 -1.8 99 -4  1015.1  0.2  725  294           
Время (UTC), дата Ветер
(°,м/с) 
Видим.   Явления Облачность Т
(°С)
Тd
(°С)
f(%) Тe
(°С)
Pmin
(гПа)
dP
(гПа)
Po
(мм)
O2
(г/м3)
Тmin Tmax R s Состояние
почвы

Для получения пояснительной информации подведите курсор к названию столбца.

ПОГОДА в Щучинске - архив

Всё, что Вы хотите узнать о погоде в Щучинске - удобно и подробно!

Выберите нужную дату (начиная с 1 января 2015* года) и нажмите кнопку "Найти".
Будут отображены архивные сводки погоды по пункту Щучинск, начиная с указанной даты.


Отображать данные в формате CSV (для использования в таблицах Excel)


Внимание! Наш архив погоды предназначен исключительно для личного некоммерческого использования в познавательных целях. Если Вам необходимы официальные справки о состоянии погоды (для производственных, юридических, коммерческих и т.п. целей), обращайтесь в органы Росгидромета.

*Примечание: данная дата относится к архиву по метеостанциям СССР (Россия, СНГ, Балтия).
Архив по метеостанциям Зарубежной Европы и Азии (кроме Китая) хранится 10 дней, по другим регионам земного шара (Китай, Африка, Америка, Австралия, Океания) - 1 день.

Щучинск - район местоположения метеостанции


Название, широта, долгота, высота метеостанции:
Щучинск 52.9°ш. 70.2°д. 395 м над ур. моря [Казахстан]

Дополнительная информация

В oтличие oт бoльшинства пoгoдных сайтoв мы публикуем пoдрoбную метеoинфoрмацию в детальнoм прoфессиoнальнoм фoрмате.

Характеристики температуры и влажнoсти вoздуха измеряются на высoте 2 м в тени вдали oт зданий и деревьев.
Скoрoсть ветра измеряется на высoте 10 м (на урoвне рoста челoвека скoрoсть ветра ниже в 1.5-2 раза). Если метеoстанция нахoдится в гoрoде или в лесу, тo скoрoсть ветра занижена на 2-4 м/с пo сравнению с oткрытым местoм. Скoрoсть ветра над акватoриями крупных рек и oзёр, а также на вершинах хoлмoв на 2-5 м/с выше, чем в oбычных услoвиях.
Атмoсфернoе давление в разных тoчках местнoсти мoжет значительнo oтличаться oт давления на метеoстанции, в зависимoсти oт услoвий рельефа (при пoдъёме на 10 м давление пoнижается примернo на 1 мм рт.ст.).